[[{"header":{"parameterUnit":"m.s-1","parameterCategory":1,"la1":30.2992,"la2":30.254,"lo1":-89.0895,"lo2":-89.0443,"dy":0.0025,"dx":0.0025,"nx":19,"ny":19,"refTime":"2026-04-01T21:00:00:Z","depth":0,"parameterNumber":2,"parameterNumberName":"U-component_of_WINDS"},"data":[0,0,0,-4.7666,-4.7669,-4.7805,-4.7806,-4.7984,-4.7985,0,0,0,0,0,0,0,0,0,0,0,-4.7628,-4.7629,-4.7666,-4.7669,-4.7805,-4.7806,-4.7983,-4.7985,0,0,0,0,0,0,0,0,0,0,0,-4.7627,-4.7629,-4.763,-4.767,-4.7805,-4.7806,-4.7983,-4.7879,0,0,0,0,0,0,0,0,0,0,-4.7746,-4.7712,-4.7628,-4.763,-4.7671,-4.7805,-4.7806,-4.7874,-4.7885,-4.7923,0,-4.7958,0,-4.7974,-4.7997,-4.7998,0,0,0,-4.7668,-4.7703,-4.7738,-4.763,-4.7672,-4.7805,-4.7743,-4.788,-4.7893,-4.7939,-4.796,-4.7967,-4.7977,-4.7999,-4.7999,-4.8224,-4.8225,0,0,-4.766,-4.7653,-4.7729,-4.7746,-4.7726,-4.7739,-4.7748,-4.7888,-4.7911,-4.7961,-4.7971,-4.798,-4.8,-4.8001,-4.8223,-4.8224,0,0,0,-4.764,-4.7648,-4.7679,-4.7739,-4.7764,-4.7743,-4.7753,-4.7905,-4.7916,-4.7973,-4.7982,-4.8001,-4.8003,-4.8222,-4.8224,-4.8271,0,0,0,-4.7635,-4.7636,-4.7676,-4.7673,-4.7761,-4.7836,-4.7766,-4.7906,-4.7922,-4.7982,-4.8001,-4.8005,-4.8221,-4.8223,-4.8267,-4.8293,0,0,0,-4.7618,-4.7634,-4.7654,-4.7673,-4.7731,-4.7834,-4.7853,-4.7909,-4.7928,-4.7998,-4.8005,-4.822,-4.8222,-4.8263,-4.8287,-4.8349,0,0,0,-4.7598,-4.7694,-4.7655,-4.7767,-4.773,-4.7863,-4.7852,-4.7951,-4.8017,-4.8002,-4.8221,-4.8223,-4.8262,-4.8284,-4.8345,-4.8397,-4.8419,0,0,-4.7716,-4.7708,-4.7775,-4.7744,-4.7881,-4.7842,-4.7988,-4.8055,-4.8068,-4.8172,-4.8177,-4.8268,-4.8287,-4.8348,-4.8548,-4.8566,0,0,0,-4.781,-4.7857,-4.7896,-4.7958,-4.8013,-4.8061,-4.8107,-4.8133,-4.8221,-4.812,-4.8309,-4.832,-4.8356,-4.8381,-4.8396,-4.8426,-4.8236,-4.8235,-4.8235,-4.7964,-4.7977,-4.8088,-4.8117,-4.8179,-4.8226,-4.8277,-4.8319,-4.8314,-4.8359,-4.8388,-4.8508,-4.8537,-4.8548,-4.858,-4.8419,-4.8419,-4.842,-4.842,-4.8136,-4.8204,-4.8197,-4.8301,-4.8315,-4.8403,-4.8454,-4.8447,-4.8531,-4.8487,-4.8519,-4.8467,-4.8567,-4.8595,-4.8423,-4.8423,-4.8422,-4.8422,-4.8422,-4.8236,-4.827,-4.8301,-4.8393,-4.8464,-4.8491,-4.8572,-4.8583,-4.8593,-4.8625,-4.8656,-4.8655,-4.8654,-4.864,-4.864,-4.8641,-4.8641,-4.8641,-4.8642,-4.8325,-4.8358,-4.8425,-4.8492,-4.8534,-4.8591,-4.8642,-4.8684,-4.8733,-4.8733,-4.8734,-4.8723,-4.8576,-4.8536,-4.8648,-4.8647,-4.8646,-4.8646,-4.8645,-4.8489,-4.8454,-4.8557,-4.8599,-4.868,-4.8749,-4.8762,-4.8847,-4.8883,-4.8923,-4.8907,-4.8797,-4.879,-4.8778,-4.8746,-4.8905,-4.8905,-4.8905,-4.8905,-4.8571,-4.8569,-4.8677,-4.8744,-4.8811,-4.8834,-4.895,-4.8992,-4.9029,-4.9052,-4.9032,-4.8991,-4.8979,-4.8979,-4.8963,-4.8932,-4.9136,-4.9136,-4.9136,-4.8671,-4.8677,-4.8773,-4.8809,-4.8874,-4.8929,-4.9038,-4.9115,-4.9151,-4.9146,-4.9071,-4.9061,-4.8995,-4.8973,-4.8962,-4.8937,-4.8881,0,0]},{"header":{"parameterUnit":"m.s-1","parameterCategory":1,"la1":30.2992,"la2":30.254,"lo1":-89.0895,"lo2":-89.0443,"dy":0.0025,"dx":0.0025,"nx":19,"ny":19,"refTime":"2026-04-01T21:00:00:Z","depth":0,"parameterNumber":3,"parameterNumberName":"V-component_of_WINDS"},"data":[0,0,0,2.6147,2.6147,2.6143,2.6143,2.6137,2.6137,0,0,0,0,0,0,0,0,0,0,0,2.6149,2.6149,2.6147,2.6147,2.6143,2.6143,2.6137,2.6137,0,0,0,0,0,0,0,0,0,0,0,2.6149,2.6149,2.6149,2.6147,2.6143,2.6143,2.6137,2.614,0,0,0,0,0,0,0,0,0,0,2.6144,2.6147,2.6149,2.6149,2.6147,2.6143,2.6143,2.614,2.614,2.6139,0,2.6141,0,2.6139,2.6137,2.6137,0,0,0,2.6145,2.6147,2.6146,2.6149,2.6147,2.6143,2.6144,2.614,2.614,2.6139,2.6141,2.614,2.6139,2.6137,2.6137,2.6145,2.6146,0,0,2.6145,2.6148,2.6146,2.6146,2.6148,2.6144,2.6144,2.614,2.6141,2.6141,2.614,2.6139,2.6137,2.6137,2.6145,2.6145,0,0,0,2.6147,2.6148,2.6147,2.6146,2.6146,2.6144,2.6144,2.6141,2.6141,2.614,2.6139,2.6137,2.6137,2.6145,2.6145,2.6155,0,0,0,2.6147,2.6149,2.6147,2.6149,2.6146,2.6144,2.6145,2.6141,2.614,2.6139,2.6137,2.6137,2.6145,2.6145,2.6155,2.6159,0,0,0,2.6149,2.615,2.615,2.6149,2.6148,2.6144,2.6143,2.6141,2.614,2.6137,2.6137,2.6145,2.6145,2.6154,2.6158,2.6163,0,0,0,2.6151,2.6156,2.615,2.6156,2.6148,2.615,2.6143,2.6144,2.6143,2.6137,2.6145,2.6145,2.6154,2.6157,2.6162,2.6168,2.617,0,0,2.6159,2.6157,2.616,2.6155,2.616,2.6151,2.6156,2.6151,2.6147,2.6146,2.6146,2.6155,2.6158,2.6163,2.6184,2.6186,0,0,0,2.6164,2.6166,2.6167,2.6168,2.6166,2.6165,2.616,2.6158,2.6158,2.6148,2.6158,2.6159,2.6162,2.6165,2.6166,2.6169,2.6147,2.6147,2.6147,2.6178,2.6176,2.6181,2.6179,2.618,2.6176,2.6176,2.6173,2.6167,2.617,2.617,2.6183,2.6186,2.6187,2.619,2.6172,2.6172,2.6172,2.6172,2.619,2.6194,2.619,2.6194,2.6191,2.6194,2.6191,2.6188,2.6189,2.6183,2.6185,2.6178,2.619,2.6192,2.6173,2.6173,2.6173,2.6173,2.6173,2.6199,2.6201,2.6201,2.6204,2.6207,2.6204,2.6207,2.6203,2.6199,2.6202,2.6201,2.6201,2.6201,2.6202,2.6202,2.6202,2.6202,2.6202,2.6202,2.6208,2.6209,2.6213,2.6214,2.6216,2.6217,2.6216,2.6217,2.6216,2.6213,2.6213,2.6208,2.6192,2.6188,2.6203,2.6203,2.6203,2.6203,2.6203,2.6221,2.6218,2.6225,2.6227,2.623,2.6233,2.623,2.6233,2.6233,2.6235,2.623,2.6219,2.6216,2.6214,2.6211,2.6231,2.6231,2.6231,2.6231,2.6228,2.6228,2.6235,2.6239,2.6242,2.6241,2.6248,2.6248,2.6246,2.6247,2.6243,2.6239,2.6238,2.6235,2.6233,2.623,2.6254,2.6254,2.6254,2.6236,2.6237,2.6244,2.6245,2.6248,2.625,2.6257,2.6261,2.6259,2.6255,2.6247,2.6246,2.6239,2.6236,2.6231,2.6228,2.6222,0,0]}]]